Time,TemperatureF,DewpointF,PressureIn,WindDirection,WindDirectionDegrees,WindSpeedMPH,WindSpeedGustMPH,Humidity,HourlyPrecipIn,Conditions,Clouds,dailyrainin,SoftwareType,DateUTC
2013-12-23 00:03:00,18.0,18.0,27.22,ENE,59,12.0,13.0,98,0.00,,,-99.99,,2013-12-23 06:03:00,
2013-12-23 00:08:00,18.0,18.0,27.22,ENE,68,12.0,13.0,98,0.00,,,-99.99,,2013-12-23 06:08:00,
2013-12-23 00:13:00,18.0,18.0,27.22,NE,56,11.0,13.0,97,0.00,,,-99.99,,2013-12-23 06:13:00,
2013-12-23 00:18:00,18.0,18.0,27.22,ENE,71,10.0,11.0,97,0.00,,,-99.99,,2013-12-23 06:18:00,
2013-12-23 00:33:00,18.0,18.0,27.22,NE,51,10.0,12.0,97,0.00,,,-99.99,,2013-12-23 06:33:00,
2013-12-23 00:38:00,18.0,18.0,27.22,ENE,69,11.0,13.0,98,0.00,,,-99.99,,2013-12-23 06:38:00,
2013-12-23 00:53:00,18.0,18.0,27.22,ENE,58,11.0,12.0,98,0.00,,,-99.99,,2013-12-23 06:53:00,
2013-12-23 00:58:00,17.0,16.0,27.23,NE,49,11.0,12.0,98,0.00,,,-99.99,,2013-12-23 06:58:00,
2013-12-23 01:08:00,17.0,16.0,27.23,NE,54,10.0,11.0,97,0.00,,,-99.99,,2013-12-23 07:08:00,
2013-12-23 01:13:00,17.0,16.0,27.23,NE,56,11.0,13.0,98,0.00,,,-99.99,,2013-12-23 07:13:00,
2013-12-23 01:18:00,17.0,16.0,27.23,NE,47,9.0,11.0,98,0.00,,,-99.99,,2013-12-23 07:18:00,
2013-12-23 01:28:00,17.0,16.0,27.23,NE,45,9.0,10.0,98,0.00,,,-99.99,,2013-12-23 07:28:00,
2013-12-23 01:33:00,17.0,16.0,27.22,NE,47,9.0,11.0,98,0.00,,,-99.99,,2013-12-23 07:33:00,
2013-12-23 01:43:00,17.0,16.0,27.24,NE,42,11.0,12.0,98,0.00,,,-99.99,,2013-12-23 07:43:00,
2013-12-23 01:48:00,17.0,16.0,27.24,NE,34,11.0,12.0,98,0.00,,,-99.99,,2013-12-23 07:48:00,
2013-12-23 01:53:00,17.0,16.0,27.24,NNE,28,10.0,12.0,98,0.00,,,-99.99,,2013-12-23 07:53:00,
2013-12-23 02:08:00,16.0,16.0,27.25,NNE,21,12.0,13.0,98,0.00,,,-99.99,,2013-12-23 08:08:00,
2013-12-23 02:23:00,16.0,16.0,27.25,NNE,23,11.0,12.0,98,0.00,,,-99.99,,2013-12-23 08:23:00,
2013-12-23 02:28:00,16.0,16.0,27.25,NNE,23,12.0,13.0,98,0.00,,,-99.99,,2013-12-23 08:28:00,
2013-12-23 02:33:00,16.0,16.0,27.25,NNE,24,11.0,13.0,98,0.00,,,-99.99,,2013-12-23 08:33:00,
2013-12-23 02:38:00,16.0,16.0,27.26,NNE,25,12.0,13.0,98,0.00,,,-99.99,,2013-12-23 08:38:00,
2013-12-23 02:43:00,15.0,14.0,27.26,NNE,23,11.0,12.0,98,0.00,,,-99.99,,2013-12-23 08:43:00,
2013-12-23 02:58:00,15.0,14.0,27.26,NNE,23,13.0,14.0,98,0.00,,,-99.99,,2013-12-23 08:58:00,
2013-12-23 03:03:00,15.0,14.0,27.27,NNE,23,12.0,13.0,98,0.00,,,-99.99,,2013-12-23 09:03:00,
2013-12-23 03:13:00,15.0,14.0,27.28,North,357,11.0,13.0,98,0.00,,,-99.99,,2013-12-23 09:13:00,
2013-12-23 03:18:00,14.0,14.0,27.28,North,11,11.0,13.0,98,0.00,,,-99.99,,2013-12-23 09:18:00,
2013-12-23 03:23:00,14.0,14.0,27.28,North,1,11.0,13.0,98,0.00,,,-99.99,,2013-12-23 09:23:00,
2013-12-23 03:28:00,14.0,14.0,27.28,NNE,13,12.0,13.0,98,0.00,,,-99.99,,2013-12-23 09:28:00,
2013-12-23 03:33:00,14.0,14.0,27.29,North,7,13.0,16.0,98,0.00,,,-99.99,,2013-12-23 09:33:00,
2013-12-23 03:38:00,14.0,14.0,27.29,North,10,14.0,15.0,98,0.00,,,-99.99,,2013-12-23 09:38:00,
2013-12-23 03:53:00,14.0,14.0,27.30,North,6,11.0,12.0,98,0.00,,,-99.99,,2013-12-23 09:53:00,
2013-12-23 03:58:00,14.0,14.0,27.30,North,353,12.0,13.0,98,0.00,,,-99.99,,2013-12-23 09:58:00,
2013-12-23 04:08:00,13.0,12.0,27.30,North,8,11.0,12.0,98,0.00,,,-99.99,,2013-12-23 10:08:00,
2013-12-23 04:13:00,13.0,12.0,27.30,North,6,12.0,14.0,98,0.00,,,-99.99,,2013-12-23 10:13:00,
2013-12-23 04:28:00,13.0,12.0,27.30,North,7,10.0,11.0,98,0.00,,,-99.99,,2013-12-23 10:28:00,
2013-12-23 04:33:00,13.0,12.0,27.30,North,8,11.0,12.0,98,0.00,,,-99.99,,2013-12-23 10:33:00,
2013-12-23 04:43:00,12.0,12.0,27.30,North,8,11.0,12.0,97,0.00,,,-99.99,,2013-12-23 10:43:00,
2013-12-23 04:48:00,12.0,12.0,27.30,North,11,10.0,11.0,97,0.00,,,-99.99,,2013-12-23 10:48:00,
2013-12-23 05:03:00,12.0,12.0,27.30,NNE,16,8.0,8.0,97,0.00,,,-99.99,,2013-12-23 11:03:00,
2013-12-23 05:08:00,12.0,12.0,27.30,NNE,13,6.0,7.0,97,0.00,,,-99.99,,2013-12-23 11:08:00,
2013-12-23 05:18:00,12.0,12.0,27.30,North,6,7.0,8.0,97,0.00,,,-99.99,,2013-12-23 11:18:00,
2013-12-23 05:23:00,12.0,12.0,27.31,North,11,6.0,7.0,97,0.00,,,-99.99,,2013-12-23 11:23:00,
2013-12-23 05:38:00,12.0,12.0,27.31,North,4,7.0,7.0,97,0.00,,,-99.99,,2013-12-23 11:38:00,
2013-12-23 05:43:00,12.0,12.0,27.31,North,355,6.0,6.0,97,0.00,,,-99.99,,2013-12-23 11:43:00,
2013-12-23 05:53:00,12.0,12.0,27.32,North,354,5.0,5.0,97,0.00,,,-99.99,,2013-12-23 11:53:00,
2013-12-23 05:58:00,12.0,12.0,27.32,North,354,5.0,5.0,97,0.00,,,-99.99,,2013-12-23 11:58:00,
2013-12-23 06:08:00,12.0,12.0,27.32,North,354,6.0,6.0,97,0.00,,,-99.99,,2013-12-23 12:08:00,
2013-12-23 06:13:00,12.0,12.0,27.32,North,354,7.0,8.0,97,0.00,,,-99.99,,2013-12-23 12:13:00,
2013-12-23 06:18:00,12.0,12.0,27.32,North,350,8.0,9.0,97,0.00,,,-99.99,,2013-12-23 12:18:00,
2013-12-23 06:28:00,12.0,10.0,27.32,North,1,7.0,8.0,96,0.00,,,-99.99,,2013-12-23 12:28:00,
2013-12-23 06:33:00,12.0,10.0,27.33,North,3,7.0,8.0,96,0.00,,,-99.99,,2013-12-23 12:33:00,
2013-12-23 06:43:00,12.0,10.0,27.33,North,355,8.0,9.0,96,0.00,,,-99.99,,2013-12-23 12:43:00,
2013-12-23 06:48:00,12.0,10.0,27.33,North,0,8.0,8.0,96,0.00,,,-99.99,,2013-12-23 12:48:00,
2013-12-23 07:03:00,11.0,10.0,27.34,NNE,16,9.0,10.0,96,0.00,,,-99.99,,2013-12-23 13:03:00,
2013-12-23 07:08:00,11.0,10.0,27.34,NNE,16,8.0,9.0,96,0.00,,,-99.99,,2013-12-23 13:08:00,
2013-12-23 07:13:00,11.0,10.0,27.34,NNE,23,9.0,10.0,96,0.00,,,-99.99,,2013-12-23 13:13:00,
2013-12-23 07:18:00,11.0,10.0,27.34,NNE,27,9.0,10.0,96,0.00,,,-99.99,,2013-12-23 13:18:00,
2013-12-23 07:23:00,10.0,9.0,27.34,NNE,30,9.0,11.0,95,0.00,,,-99.99,,2013-12-23 13:23:00,
2013-12-23 07:33:00,10.0,9.0,27.34,NNE,32,8.0,9.0,95,0.00,,,-99.99,,2013-12-23 13:33:00,
2013-12-23 07:38:00,10.0,9.0,27.34,NNE,30,9.0,10.0,95,0.00,,,-99.99,,2013-12-23 13:38:00,
2013-12-23 07:53:00,9.0,9.0,27.34,NE,41,8.0,9.0,95,0.00,,,-99.99,,2013-12-23 13:53:00,
2013-12-23 07:58:00,9.0,9.0,27.34,NE,47,9.0,9.0,95,0.00,,,-99.99,,2013-12-23 13:58:00,
2013-12-23 08:08:00,9.0,7.0,27.35,NE,41,7.0,8.0,94,0.00,,,-99.99,,2013-12-23 14:08:00,
2013-12-23 08:13:00,8.0,7.0,27.35,NNE,24,7.0,7.0,95,0.00,,,-99.99,,2013-12-23 14:13:00,
2013-12-23 08:23:00,9.0,9.0,27.35,NE,48,6.0,7.0,95,0.00,,,-99.99,,2013-12-23 14:23:00,
2013-12-23 08:28:00,9.0,7.0,27.35,NE,48,5.0,6.0,94,0.00,,,-99.99,,2013-12-23 14:28:00,
2013-12-23 08:38:00,10.0,9.0,27.36,ENE,61,6.0,6.0,94,0.00,,,-99.99,,2013-12-23 14:38:00,
2013-12-23 08:43:00,10.0,9.0,27.36,ENE,73,5.0,6.0,94,0.00,,,-99.99,,2013-12-23 14:43:00,
2013-12-23 08:58:00,10.0,9.0,27.36,ENE,65,5.0,6.0,94,0.00,,,-99.99,,2013-12-23 14:58:00,
2013-12-23 09:03:00,10.0,9.0,27.37,NE,55,5.0,5.0,94,0.00,,,-99.99,,2013-12-23 15:03:00,
2013-12-23 09:13:00,11.0,9.0,27.37,ENE,59,5.0,6.0,93,0.00,,,-99.99,,2013-12-23 15:13:00,
2013-12-23 09:18:00,11.0,9.0,27.37,ENE,71,4.0,5.0,93,0.00,,,-99.99,,2013-12-23 15:18:00,
2013-12-23 09:28:00,11.0,9.0,27.37,ESE,103,5.0,6.0,93,0.00,,,-99.99,,2013-12-23 15:28:00,
2013-12-23 09:33:00,11.0,9.0,27.37,ESE,104,5.0,5.0,93,0.00,,,-99.99,,2013-12-23 15:33:00,
2013-12-23 09:38:00,11.0,9.0,27.37,ESE,104,5.0,5.0,93,0.00,,,-99.99,,2013-12-23 15:38:00,
2013-12-23 09:48:00,11.0,9.0,27.37,ESE,114,5.0,6.0,92,0.00,,,-99.99,,2013-12-23 15:48:00,
2013-12-23 09:53:00,12.0,10.0,27.37,ESE,117,6.0,6.0,92,0.00,,,-99.99,,2013-12-23 15:53:00,
2013-12-23 10:03:00,13.0,10.0,27.37,ESE,116,6.0,7.0,92,0.00,,,-99.99,,2013-12-23 16:03:00,
2013-12-23 10:08:00,13.0,10.0,27.38,ESE,114,6.0,6.0,91,0.00,,,-99.99,,2013-12-23 16:08:00,
2013-12-23 10:13:00,13.0,10.0,27.38,ESE,117,6.0,7.0,91,0.00,,,-99.99,,2013-12-23 16:13:00,
2013-12-23 10:18:00,13.0,10.0,27.38,ESE,117,6.0,6.0,91,0.00,,,-99.99,,2013-12-23 16:18:00,
2013-12-23 10:23:00,13.0,10.0,27.38,SE,124,6.0,6.0,90,0.00,,,-99.99,,2013-12-23 16:23:00,
2013-12-23 10:28:00,13.0,10.0,27.39,SE,124,6.0,6.0,91,0.00,,,-99.99,,2013-12-23 16:28:00,
2013-12-23 10:33:00,14.0,12.0,27.39,ESE,116,5.0,6.0,91,0.00,,,-99.99,,2013-12-23 16:33:00,
2013-12-23 10:38:00,14.0,12.0,27.39,ESE,114,5.0,6.0,91,0.00,,,-99.99,,2013-12-23 16:38:00,
2013-12-23 10:43:00,14.0,12.0,27.38,ESE,113,5.0,6.0,91,0.00,,,-99.99,,2013-12-23 16:43:00,
2013-12-23 10:48:00,14.0,12.0,27.38,ESE,111,5.0,6.0,92,0.00,,,-99.99,,2013-12-23 16:48:00,
2013-12-23 10:58:00,14.0,12.0,27.38,South,175,8.0,9.0,92,0.00,,,-99.99,,2013-12-23 16:58:00,
2013-12-23 11:03:00,14.0,12.0,27.38,SSE,158,9.0,10.0,92,0.00,,,-99.99,,2013-12-23 17:03:00,
2013-12-23 11:08:00,14.0,12.0,27.38,South,169,9.0,10.0,92,0.00,,,-99.99,,2013-12-23 17:08:00,
2013-12-23 11:13:00,14.0,12.0,27.38,South,176,10.0,11.0,91,0.00,,,-99.99,,2013-12-23 17:13:00,
2013-12-23 11:18:00,14.0,12.0,27.38,SSE,168,11.0,13.0,92,0.00,,,-99.99,,2013-12-23 17:18:00,
2013-12-23 11:23:00,14.0,12.0,27.38,South,169,11.0,12.0,91,0.00,,,-99.99,,2013-12-23 17:23:00,
2013-12-23 11:38:00,14.0,12.0,27.38,SSE,159,11.0,12.0,90,0.00,,,-99.99,,2013-12-23 17:38:00,
2013-12-23 11:43:00,14.0,12.0,27.37,South,172,11.0,12.0,90,0.00,,,-99.99,,2013-12-23 17:43:00,
2013-12-23 11:53:00,14.0,12.0,27.37,South,175,11.0,12.0,91,0.00,,,-99.99,,2013-12-23 17:53:00,
2013-12-23 11:58:00,15.0,12.0,27.36,South,171,12.0,12.0,91,0.00,,,-99.99,,2013-12-23 17:58:00,
2013-12-23 12:03:00,15.0,12.0,27.36,SSE,168,11.0,12.0,91,0.00,,,-99.99,,2013-12-23 18:03:00,
2013-12-23 12:08:00,15.0,12.0,27.36,South,172,10.0,12.0,90,0.00,,,-99.99,,2013-12-23 18:08:00,
2013-12-23 12:13:00,15.0,12.0,27.36,South,176,11.0,11.0,90,0.00,,,-99.99,,2013-12-23 18:13:00,
2013-12-23 12:18:00,15.0,12.0,27.35,South,172,10.0,11.0,91,0.00,,,-99.99,,2013-12-23 18:18:00,
2013-12-23 12:23:00,16.0,14.0,27.35,South,172,11.0,12.0,90,0.00,,,-99.99,,2013-12-23 18:23:00,
2013-12-23 12:33:00,16.0,14.0,27.35,South,178,12.0,13.0,91,0.00,,,-99.99,,2013-12-23 18:33:00,
2013-12-23 12:38:00,16.0,14.0,27.35,South,182,12.0,13.0,91,0.00,,,-99.99,,2013-12-23 18:38:00,
2013-12-23 12:43:00,16.0,14.0,27.34,South,175,11.0,13.0,91,0.00,,,-99.99,,2013-12-23 18:43:00,
2013-12-23 12:53:00,17.0,16.0,27.34,South,189,11.0,12.0,92,0.00,,,-99.99,,2013-12-23 18:53:00,
2013-12-23 12:58:00,17.0,16.0,27.33,South,189,11.0,13.0,92,0.00,,,-99.99,,2013-12-23 18:58:00,
2013-12-23 13:13:00,18.0,16.0,27.32,SSW,192,11.0,13.0,92,0.00,,,-99.99,,2013-12-23 19:13:00,
2013-12-23 13:18:00,18.0,16.0,27.32,South,182,11.0,13.0,92,0.00,,,-99.99,,2013-12-23 19:18:00,
2013-12-23 13:23:00,18.0,16.0,27.31,SSW,195,11.0,13.0,92,0.00,,,-99.99,,2013-12-23 19:23:00,
2013-12-23 13:33:00,19.0,18.0,27.31,South,189,12.0,13.0,92,0.00,,,-99.99,,2013-12-23 19:33:00,
2013-12-23 13:38:00,19.0,18.0,27.30,SSW,202,13.0,16.0,93,0.00,,,-99.99,,2013-12-23 19:38:00,
2013-12-23 13:43:00,19.0,18.0,27.30,SSW,195,13.0,15.0,93,0.00,,,-99.99,,2013-12-23 19:43:00,
2013-12-23 13:48:00,19.0,18.0,27.30,SSW,199,13.0,15.0,93,0.00,,,-99.99,,2013-12-23 19:48:00,
2013-12-23 13:53:00,19.0,18.0,27.30,South,188,12.0,14.0,93,0.00,,,-99.99,,2013-12-23 19:53:00,
2013-12-23 13:58:00,19.0,18.0,27.30,SSW,193,12.0,13.0,93,0.00,,,-99.99,,2013-12-23 19:58:00,
2013-12-23 14:08:00,19.0,18.0,27.29,South,189,14.0,15.0,93,0.00,,,-99.99,,2013-12-23 20:08:00,
2013-12-23 14:13:00,20.0,18.0,27.29,SSW,192,13.0,15.0,93,0.00,,,-99.99,,2013-12-23 20:13:00,
2013-12-23 14:18:00,20.0,18.0,27.28,South,190,12.0,14.0,93,0.00,,,-99.99,,2013-12-23 20:18:00,
2013-12-23 14:28:00,20.0,18.0,27.27,South,173,13.0,13.0,93,0.00,,,-99.99,,2013-12-23 20:28:00,
2013-12-23 14:33:00,20.0,18.0,27.27,South,179,11.0,12.0,93,0.00,,,-99.99,,2013-12-23 20:33:00,
2013-12-23 14:38:00,20.0,18.0,27.27,South,176,11.0,12.0,93,0.00,,,-99.99,,2013-12-23 20:38:00,
2013-12-23 14:43:00,20.0,19.0,27.27,South,178,12.0,12.0,94,0.00,,,-99.99,,2013-12-23 20:43:00,
2013-12-23 14:48:00,20.0,19.0,27.26,South,176,10.0,12.0,94,0.00,,,-99.99,,2013-12-23 20:48:00,
2013-12-23 14:53:00,21.0,19.0,27.26,SSW,207,9.0,12.0,94,0.00,,,-99.99,,2013-12-23 20:53:00,
2013-12-23 14:58:00,22.0,21.0,27.26,SSW,200,12.0,16.0,94,0.00,,,-99.99,,2013-12-23 20:58:00,
2013-12-23 15:03:00,22.0,21.0,27.26,SSW,203,12.0,15.0,94,0.00,,,-99.99,,2013-12-23 21:03:00,
2013-12-23 15:13:00,23.0,21.0,27.26,SSW,197,12.0,16.0,94,0.00,,,-99.99,,2013-12-23 21:13:00,
2013-12-23 15:18:00,23.0,21.0,27.26,SSW,197,11.0,14.0,94,0.00,,,-99.99,,2013-12-23 21:18:00,
2013-12-23 15:23:00,24.0,23.0,27.26,SW,221,11.0,13.0,94,0.00,,,-99.99,,2013-12-23 21:23:00,
2013-12-23 15:33:00,24.0,23.0,27.25,SSW,195,11.0,13.0,93,0.00,,,-99.99,,2013-12-23 21:33:00,
2013-12-23 15:38:00,24.0,23.0,27.25,SSW,195,12.0,14.0,93,0.00,,,-99.99,,2013-12-23 21:38:00,
2013-12-23 15:43:00,24.0,23.0,27.25,SSW,197,10.0,12.0,93,0.00,,,-99.99,,2013-12-23 21:43:00,
2013-12-23 15:53:00,24.0,23.0,27.24,SSW,192,11.0,13.0,93,0.00,,,-99.99,,2013-12-23 21:53:00,
2013-12-23 15:58:00,24.0,23.0,27.24,SSW,199,10.0,12.0,93,0.00,,,-99.99,,2013-12-23 21:58:00,
2013-12-23 16:03:00,24.0,23.0,27.24,SSW,197,10.0,11.0,93,0.00,,,-99.99,,2013-12-23 22:03:00,
2013-12-23 16:13:00,24.0,23.0,27.24,South,190,11.0,12.0,93,0.00,,,-99.99,,2013-12-23 22:13:00,
2013-12-23 16:18:00,24.0,23.0,27.23,SSW,195,9.0,11.0,93,0.00,,,-99.99,,2013-12-23 22:18:00,
2013-12-23 16:23:00,24.0,23.0,27.23,South,190,10.0,12.0,93,0.00,,,-99.99,,2013-12-23 22:23:00,
2013-12-23 16:38:00,23.0,21.0,27.23,South,173,10.0,11.0,92,0.00,,,-99.99,,2013-12-23 22:38:00,
2013-12-23 16:43:00,22.0,19.0,27.23,SSE,168,9.0,10.0,92,0.00,,,-99.99,,2013-12-23 22:43:00,
2013-12-23 16:58:00,20.0,18.0,27.23,SSE,157,9.0,9.0,92,0.00,,,-99.99,,2013-12-23 22:58:00,
2013-12-23 17:03:00,19.0,18.0,27.23,SSE,151,9.0,9.0,92,0.00,,,-99.99,,2013-12-23 23:03:00,
2013-12-23 17:18:00,17.0,16.0,27.22,SE,142,10.0,10.0,93,0.00,,,-99.99,,2013-12-23 23:18:00,
2013-12-23 17:23:00,17.0,16.0,27.23,SE,140,10.0,11.0,93,0.00,,,-99.99,,2013-12-23 23:23:00,
2013-12-23 17:28:00,17.0,16.0,27.22,SE,141,10.0,10.0,93,0.00,,,-99.99,,2013-12-23 23:28:00,
2013-12-23 17:33:00,17.0,16.0,27.22,SE,145,10.0,10.0,94,0.00,,,-99.99,,2013-12-23 23:33:00,
2013-12-23 17:38:00,16.0,14.0,27.22,SE,141,10.0,10.0,94,0.00,,,-99.99,,2013-12-23 23:38:00,
2013-12-23 17:43:00,16.0,14.0,27.22,SE,142,10.0,10.0,94,0.00,,,-99.99,,2013-12-23 23:43:00,
2013-12-23 17:48:00,16.0,14.0,27.22,SE,138,10.0,10.0,94,0.00,,,-99.99,,2013-12-23 23:48:00,
2013-12-23 17:53:00,16.0,14.0,27.22,SE,135,10.0,10.0,94,0.00,,,-99.99,,2013-12-23 23:53:00,
2013-12-23 17:58:00,16.0,14.0,27.21,SE,141,10.0,11.0,94,0.00,,,-99.99,,2013-12-23 23:58:00,
2013-12-23 18:03:00,16.0,14.0,27.21,SE,130,10.0,10.0,94,0.00,,,-99.99,,2013-12-24 00:03:00,
2013-12-23 18:08:00,15.0,14.0,27.21,SE,133,10.0,11.0,95,0.00,,,-99.99,,2013-12-24 00:08:00,
2013-12-23 18:13:00,15.0,14.0,27.21,ESE,120,10.0,11.0,95,0.00,,,-99.99,,2013-12-24 00:13:00,
2013-12-23 18:18:00,15.0,14.0,27.21,ESE,121,10.0,11.0,94,0.00,,,-99.99,,2013-12-24 00:18:00,
2013-12-23 18:23:00,15.0,14.0,27.21,ESE,118,9.0,10.0,95,0.00,,,-99.99,,2013-12-24 00:23:00,
2013-12-23 18:28:00,14.0,12.0,27.21,ESE,107,10.0,11.0,95,0.00,,,-99.99,,2013-12-24 00:28:00,
2013-12-23 18:38:00,14.0,12.0,27.21,ESE,109,11.0,11.0,95,0.00,,,-99.99,,2013-12-24 00:38:00,
2013-12-23 18:43:00,13.0,12.0,27.21,ESE,110,10.0,11.0,95,0.00,,,-99.99,,2013-12-24 00:43:00,
2013-12-23 18:58:00,13.0,12.0,27.21,ESE,113,10.0,11.0,96,0.00,,,-99.99,,2013-12-24 00:58:00,
2013-12-23 19:03:00,13.0,12.0,27.21,ESE,117,10.0,11.0,96,0.00,,,-99.99,,2013-12-24 01:03:00,
2013-12-23 19:13:00,13.0,12.0,27.21,ESE,117,10.0,11.0,96,0.00,,,-99.99,,2013-12-24 01:13:00,
2013-12-23 19:18:00,13.0,12.0,27.21,ESE,116,10.0,10.0,96,0.00,,,-99.99,,2013-12-24 01:18:00,
2013-12-23 19:23:00,13.0,12.0,27.21,ESE,118,9.0,10.0,96,0.00,,,-99.99,,2013-12-24 01:23:00,
2013-12-23 19:33:00,13.0,12.0,27.20,ESE,117,10.0,11.0,96,0.00,,,-99.99,,2013-12-24 01:33:00,
2013-12-23 19:38:00,12.0,10.0,27.20,ESE,120,11.0,11.0,96,0.00,,,-99.99,,2013-12-24 01:38:00,
2013-12-23 19:53:00,12.0,10.0,27.20,SE,124,12.0,12.0,96,0.00,,,-99.99,,2013-12-24 01:53:00,
2013-12-23 19:58:00,11.0,10.0,27.20,ESE,121,11.0,11.0,96,0.00,,,-99.99,,2013-12-24 01:58:00,
2013-12-23 20:08:00,11.0,10.0,27.20,ESE,118,12.0,12.0,96,0.00,,,-99.99,,2013-12-24 02:08:00,
2013-12-23 20:13:00,11.0,10.0,27.20,ESE,118,12.0,12.0,96,0.00,,,-99.99,,2013-12-24 02:13:00,
2013-12-23 21:03:00,10.0,9.0,27.19,SE,141,11.0,11.0,96,0.00,,,-99.99,,2013-12-24 03:03:00,
2013-12-23 21:43:00,11.0,10.0,27.17,SSE,165,12.0,13.0,97,0.00,,,-99.99,,2013-12-24 03:43:00,
2013-12-23 22:28:00,13.0,12.0,27.17,SSE,149,11.0,12.0,97,0.00,,,-99.99,,2013-12-24 04:28:00,
2013-12-23 23:18:00,13.0,12.0,27.14,South,169,10.0,11.0,97,0.00,,,-99.99,,2013-12-24 05:18:00,
2013-12-23 23:23:00,14.0,14.0,27.14,SSE,168,10.0,12.0,97,0.00,,,-99.99,,2013-12-24 05:23:00,
2013-12-23 23:58:00,14.0,14.0,27.13,South,172,10.0,11.0,97,0.00,,,-99.99,,2013-12-24 05:58:00,